Time,TemperatureF,DewpointF,PressureIn,WindDirection,WindDirectionDegrees,WindSpeedMPH,WindSpeedGustMPH,Humidity,HourlyPrecipIn,Conditions,Clouds,dailyrainin,SolarRadiationWatts/m^2,SoftwareType,DateUTC
2013-04-22 00:00:00,56.5,45.3,30.01,South,175,0.0,0.0,66,0.00,,,0.00,0,Wunderground v.1.15,2013-04-22 07:00:00,
2013-04-22 00:05:00,56.6,45.0,30.01,South,175,0.0,0.0,65,0.00,,,0.00,0,Wunderground v.1.15,2013-04-22 07:05:00,
2013-04-22 00:15:00,56.5,43.6,30.01,South,174,0.0,0.0,62,0.00,,,0.00,0,Wunderground v.1.15,2013-04-22 07:15:00,
2013-04-22 00:20:00,56.5,43.6,30.01,NE,50,0.0,0.0,62,0.00,,,0.00,0,Wunderground v.1.15,2013-04-22 07:20:00,
2013-04-22 00:25:00,56.6,43.7,30.01,NE,50,2.0,2.0,62,0.00,,,0.00,0,Wunderground v.1.15,2013-04-22 07:25:00,
2013-04-22 00:34:00,56.8,43.5,30.01,NE,49,0.0,2.0,61,0.00,,,0.00,0,Wunderground v.1.15,2013-04-22 07:34:00,
2013-04-22 00:40:00,56.9,44.0,30.01,NE,50,0.0,0.0,62,0.00,,,0.00,0,Wunderground v.1.15,2013-04-22 07:40:00,
2013-04-22 00:45:00,57.0,43.7,30.01,NE,51,0.0,0.0,61,0.00,,,0.00,0,Wunderground v.1.15,2013-04-22 07:45:00,
2013-04-22 00:50:00,57.1,43.8,30.00,NE,51,0.0,0.0,61,0.00,,,0.00,0,Wunderground v.1.15,2013-04-22 07:50:00,
2013-04-22 01:00:00,57.2,43.9,30.00,NE,51,2.0,2.0,61,0.00,,,0.00,0,Wunderground v.1.15,2013-04-22 08:00:00,
2013-04-22 01:05:00,57.1,43.3,30.00,NE,51,0.0,2.0,60,0.00,,,0.00,0,Wunderground v.1.15,2013-04-22 08:05:00,
2013-04-22 01:15:00,56.9,43.2,30.01,NE,51,0.0,0.0,60,0.00,,,0.00,0,Wunderground v.1.15,2013-04-22 08:15:00,
2013-04-22 01:25:00,56.8,43.1,30.00,NE,51,0.0,0.0,60,0.00,,,0.00,0,Wunderground v.1.15,2013-04-22 08:25:00,
2013-04-22 01:30:00,56.7,43.0,30.00,NE,51,0.0,0.0,60,0.00,,,0.00,0,Wunderground v.1.15,2013-04-22 08:30:00,
2013-04-22 01:40:00,56.7,43.0,30.00,NE,51,0.0,0.0,60,0.00,,,0.00,0,Wunderground v.1.15,2013-04-22 08:40:00,
2013-04-22 01:45:00,56.7,43.0,30.00,NE,51,0.0,0.0,60,0.00,,,0.00,0,Wunderground v.1.15,2013-04-22 08:45:00,
2013-04-22 01:50:00,56.7,43.0,30.00,SE,126,2.0,2.0,60,0.00,,,0.00,0,Wunderground v.1.15,2013-04-22 08:50:00,
2013-04-22 02:00:00,56.5,42.8,29.99,South,171,0.0,0.0,60,0.00,,,0.00,0,Wunderground v.1.15,2013-04-22 09:00:00,
2013-04-22 02:05:00,56.3,43.0,29.99,ENE,65,0.0,0.0,61,0.00,,,0.00,0,Wunderground v.1.15,2013-04-22 09:05:00,
2013-04-22 02:15:00,56.2,42.9,29.99,ENE,65,0.0,0.0,61,0.00,,,0.00,0,Wunderground v.1.15,2013-04-22 09:15:00,
2013-04-22 02:20:00,56.1,42.8,29.99,ENE,65,0.0,0.0,61,0.00,,,0.00,0,Wunderground v.1.15,2013-04-22 09:20:00,
2013-04-22 02:30:00,55.8,43.0,29.99,South,174,0.0,0.0,62,0.00,,,0.00,0,Wunderground v.1.15,2013-04-22 09:30:00,
2013-04-22 02:40:00,55.8,43.4,29.99,South,188,0.0,0.0,63,0.00,,,0.00,0,Wunderground v.1.15,2013-04-22 09:40:00,
2013-04-22 02:45:00,55.7,43.7,29.99,South,188,0.0,0.0,64,0.00,,,0.00,0,Wunderground v.1.15,2013-04-22 09:45:00,
2013-04-22 02:50:00,55.8,43.8,29.99,South,188,0.0,0.0,64,0.00,,,0.00,0,Wunderground v.1.15,2013-04-22 09:50:00,
2013-04-22 03:00:00,55.9,43.5,29.99,South,187,0.0,0.0,63,0.00,,,0.00,0,Wunderground v.1.15,2013-04-22 10:00:00,
2013-04-22 03:05:00,56.0,43.6,29.99,South,187,0.0,0.0,63,0.00,,,0.00,0,Wunderground v.1.15,2013-04-22 10:05:00,
2013-04-22 03:15:00,56.1,43.7,29.99,NE,34,0.0,0.0,63,0.00,,,0.00,0,Wunderground v.1.15,2013-04-22 10:15:00,
2013-04-22 03:25:00,56.1,43.7,29.99,NE,34,0.0,0.0,63,0.00,,,0.00,0,Wunderground v.1.15,2013-04-22 10:25:00,
2013-04-22 03:35:00,55.9,43.1,29.99,NNE,33,0.0,0.0,62,0.00,,,0.00,0,Wunderground v.1.15,2013-04-22 10:35:00,
2013-04-22 03:45:00,56.0,43.2,29.98,NE,34,0.0,0.0,62,0.00,,,0.00,0,Wunderground v.1.15,2013-04-22 10:45:00,
2013-04-22 03:55:00,56.1,43.7,29.98,NE,34,0.0,0.0,63,0.00,,,0.00,0,Wunderground v.1.15,2013-04-22 10:55:00,
2013-04-22 04:00:00,56.0,43.2,29.98,NE,34,0.0,0.0,62,0.00,,,0.00,0,Wunderground v.1.15,2013-04-22 11:00:00,
2013-04-22 04:05:00,56.0,43.2,29.98,NE,34,0.0,0.0,62,0.00,,,0.00,0,Wunderground v.1.15,2013-04-22 11:05:00,
2013-04-22 04:15:00,56.0,43.2,29.98,NE,34,0.0,0.0,62,0.00,,,0.00,0,Wunderground v.1.15,2013-04-22 11:15:00,
2013-04-22 04:20:00,56.1,43.3,29.98,NE,42,0.0,0.0,62,0.00,,,0.00,0,Wunderground v.1.15,2013-04-22 11:20:00,
2013-04-22 04:30:00,56.1,43.3,29.98,NE,42,0.0,0.0,62,0.00,,,0.00,0,Wunderground v.1.15,2013-04-22 11:30:00,
2013-04-22 04:35:00,56.1,43.3,29.98,NE,42,0.0,0.0,62,0.00,,,0.00,0,Wunderground v.1.15,2013-04-22 11:35:00,
2013-04-22 04:45:00,56.2,42.9,29.98,NE,43,0.0,2.0,61,0.00,,,0.00,0,Wunderground v.1.15,2013-04-22 11:45:00,
2013-04-22 04:50:00,56.2,42.9,29.98,NE,43,0.0,0.0,61,0.00,,,0.00,0,Wunderground v.1.15,2013-04-22 11:50:00,
2013-04-22 04:55:00,56.1,42.8,29.98,NE,43,0.0,0.0,61,0.00,,,0.00,0,Wunderground v.1.15,2013-04-22 11:55:00,
2013-04-22 05:00:00,56.1,42.8,29.98,NE,43,0.0,0.0,61,0.00,,,0.00,0,Wunderground v.1.15,2013-04-22 12:00:00,
2013-04-22 05:05:00,56.0,42.7,29.98,NE,43,0.0,0.0,61,0.00,,,0.00,0,Wunderground v.1.15,2013-04-22 12:05:00,
2013-04-22 05:15:00,55.8,42.5,29.98,NE,43,0.0,0.0,61,0.00,,,0.00,0,Wunderground v.1.15,2013-04-22 12:15:00,
2013-04-22 05:20:00,55.8,43.0,29.98,NE,43,0.0,0.0,62,0.00,,,0.00,0,Wunderground v.1.15,2013-04-22 12:20:00,
2013-04-22 05:25:00,55.9,43.1,29.98,NE,43,0.0,0.0,62,0.00,,,0.00,0,Wunderground v.1.15,2013-04-22 12:25:00,
2013-04-22 05:34:00,55.9,42.6,29.98,NE,43,0.0,0.0,61,0.00,,,0.00,0,Wunderground v.1.15,2013-04-22 12:34:00,
2013-04-22 05:40:00,55.9,43.1,29.98,NE,43,1.0,1.0,62,0.00,,,0.00,0,Wunderground v.1.15,2013-04-22 12:40:00,
2013-04-22 05:45:00,55.9,42.6,29.98,NE,43,0.0,1.0,61,0.00,,,0.00,0,Wunderground v.1.15,2013-04-22 12:45:00,
2013-04-22 05:55:00,55.8,42.5,29.98,NE,53,2.0,2.0,61,0.00,,,0.00,0,Wunderground v.1.15,2013-04-22 12:55:00,
2013-04-22 06:00:00,55.8,42.5,29.98,ENE,59,0.0,0.0,61,0.00,,,0.00,0,Wunderground v.1.15,2013-04-22 13:00:00,
2013-04-22 06:05:00,55.7,42.5,29.98,ENE,59,0.0,0.0,61,0.00,,,0.00,0,Wunderground v.1.15,2013-04-22 13:05:00,
2013-04-22 06:15:00,55.6,42.8,29.98,ENE,59,1.0,1.0,62,0.00,,,0.00,0,Wunderground v.1.15,2013-04-22 13:15:00,
2013-04-22 06:20:00,55.5,42.7,29.98,ENE,59,0.0,0.0,62,0.00,,,0.00,0,Wunderground v.1.15,2013-04-22 13:20:00,
2013-04-22 06:30:00,55.4,42.6,29.99,ENE,59,0.0,0.0,62,0.00,,,0.00,0,Wunderground v.1.15,2013-04-22 13:30:00,
2013-04-22 06:35:00,55.4,42.6,29.99,ENE,59,0.0,0.0,62,0.00,,,0.00,0,Wunderground v.1.15,2013-04-22 13:35:00,
2013-04-22 06:45:00,55.5,42.7,29.99,ENE,59,0.0,0.0,62,0.00,,,0.00,0,Wunderground v.1.15,2013-04-22 13:45:00,
2013-04-22 06:50:00,55.5,42.7,29.99,ENE,59,0.0,0.0,62,0.00,,,0.00,0,Wunderground v.1.15,2013-04-22 13:50:00,
2013-04-22 07:00:00,55.6,42.8,30.00,ENE,59,0.0,0.0,62,0.00,,,0.00,0,Wunderground v.1.15,2013-04-22 14:00:00,
2013-04-22 07:05:00,55.6,42.8,30.00,ENE,59,0.0,0.0,62,0.00,,,0.00,0,Wunderground v.1.15,2013-04-22 14:05:00,
2013-04-22 07:15:00,55.5,42.7,30.00,ENE,59,0.0,0.0,62,0.00,,,0.00,0,Wunderground v.1.15,2013-04-22 14:15:00,
2013-04-22 07:20:00,55.5,43.1,30.00,ENE,59,0.0,0.0,63,0.00,,,0.00,0,Wunderground v.1.15,2013-04-22 14:20:00,
2013-04-22 07:25:00,55.6,43.2,30.00,ENE,59,1.0,1.0,63,0.00,,,0.00,0,Wunderground v.1.15,2013-04-22 14:25:00,
2013-04-22 07:34:00,55.8,43.4,30.00,NNE,16,0.0,2.0,63,0.00,,,0.00,0,Wunderground v.1.15,2013-04-22 14:34:00,
2013-04-22 07:40:00,55.9,43.5,30.00,ENE,63,0.0,0.0,63,0.00,,,0.00,0,Wunderground v.1.15,2013-04-22 14:40:00,
2013-04-22 07:45:00,55.9,43.1,30.00,ENE,63,0.0,0.0,62,0.00,,,0.00,0,Wunderground v.1.15,2013-04-22 14:45:00,
2013-04-22 07:50:00,56.0,43.6,30.00,ENE,63,0.0,0.0,63,0.00,,,0.00,0,Wunderground v.1.15,2013-04-22 14:50:00,
2013-04-22 08:00:00,56.2,43.8,30.01,ENE,63,1.0,1.0,63,0.00,,,0.00,0,Wunderground v.1.15,2013-04-22 15:00:00,
2013-04-22 08:05:00,56.3,43.4,30.01,ENE,63,0.0,1.0,62,0.00,,,0.00,0,Wunderground v.1.15,2013-04-22 15:05:00,
2013-04-22 08:14:00,56.4,44.0,30.01,ENE,62,2.0,2.0,63,0.00,,,0.00,0,Wunderground v.1.15,2013-04-22 15:14:00,
2013-04-22 08:19:00,56.6,44.1,30.00,ENE,62,0.0,0.0,63,0.00,,,0.00,0,Wunderground v.1.15,2013-04-22 15:19:00,
2013-04-22 08:25:00,56.8,44.3,30.00,ENE,62,0.0,0.0,63,0.00,,,0.00,0,Wunderground v.1.15,2013-04-22 15:25:00,
2013-04-22 08:30:00,56.9,44.0,30.01,ENE,62,0.0,0.0,62,0.00,,,0.00,0,Wunderground v.1.15,2013-04-22 15:30:00,
2013-04-22 08:40:00,57.2,44.3,30.01,ENE,62,0.0,0.0,62,0.00,,,0.00,0,Wunderground v.1.15,2013-04-22 15:40:00,
2013-04-22 08:45:00,57.3,44.0,30.01,SE,144,0.0,0.0,61,0.00,,,0.00,0,Wunderground v.1.15,2013-04-22 15:45:00,
2013-04-22 08:55:00,56.9,44.0,30.01,SW,219,0.0,1.0,62,0.00,,,0.00,0,Wunderground v.1.15,2013-04-22 15:55:00,
2013-04-22 09:00:00,56.9,44.0,30.01,SW,219,0.0,0.0,62,0.00,,,0.00,0,Wunderground v.1.15,2013-04-22 16:00:00,
2013-04-22 09:05:00,56.9,44.0,30.01,SW,219,3.0,3.0,62,0.00,,,0.00,0,Wunderground v.1.15,2013-04-22 16:05:00,
2013-04-22 09:15:00,56.8,43.9,30.01,SW,219,0.0,0.0,62,0.00,,,0.00,0,Wunderground v.1.15,2013-04-22 16:15:00,
2013-04-22 09:25:00,57.2,44.3,30.01,SW,220,3.0,3.0,62,0.00,,,0.00,0,Wunderground v.1.15,2013-04-22 16:25:00,
2013-04-22 09:30:00,57.3,44.8,30.01,SW,215,1.0,1.0,63,0.00,,,0.00,0,Wunderground v.1.15,2013-04-22 16:30:00,
2013-04-22 09:40:00,57.7,44.8,30.01,SW,215,0.0,0.0,62,0.00,,,0.00,0,Wunderground v.1.15,2013-04-22 16:40:00,
2013-04-22 09:45:00,57.8,44.9,30.01,SW,215,0.0,0.0,62,0.00,,,0.00,0,Wunderground v.1.15,2013-04-22 16:45:00,
2013-04-22 09:55:00,59.0,45.6,30.01,SW,215,0.0,0.0,61,0.00,,,0.00,0,Wunderground v.1.15,2013-04-22 16:55:00,
2013-04-22 10:00:00,59.3,45.0,30.01,SSW,211,0.0,0.0,59,0.00,,,0.00,0,Wunderground v.1.15,2013-04-22 17:00:00,
2013-04-22 10:05:00,59.4,45.1,30.01,SSW,202,3.0,3.0,59,0.00,,,0.00,0,Wunderground v.1.15,2013-04-22 17:05:00,
2013-04-22 10:15:00,59.5,45.2,30.01,WSW,248,0.0,4.0,59,0.00,,,0.00,0,Wunderground v.1.15,2013-04-22 17:15:00,
2013-04-22 10:25:00,59.6,45.2,30.01,WSW,249,1.0,1.0,59,0.00,,,0.00,0,Wunderground v.1.15,2013-04-22 17:25:00,
2013-04-22 10:30:00,59.9,45.5,30.01,SW,218,4.0,4.0,59,0.00,,,0.00,0,Wunderground v.1.15,2013-04-22 17:30:00,
2013-04-22 10:40:00,60.2,45.8,30.01,WSW,243,2.0,2.0,59,0.00,,,0.00,0,Wunderground v.1.15,2013-04-22 17:40:00,
2013-04-22 10:45:00,60.8,45.9,30.01,South,181,0.0,2.0,58,0.00,,,0.00,0,Wunderground v.1.15,2013-04-22 17:45:00,
2013-04-22 10:55:00,60.9,45.6,30.01,South,180,1.0,1.0,57,0.00,,,0.00,0,Wunderground v.1.15,2013-04-22 17:55:00,
2013-04-22 11:00:00,60.9,45.6,30.01,SW,233,0.0,0.0,57,0.00,,,0.00,0,Wunderground v.1.15,2013-04-22 18:00:00,
2013-04-22 11:05:00,61.1,45.3,30.01,SW,231,5.0,5.0,56,0.00,,,0.00,0,Wunderground v.1.15,2013-04-22 18:05:00,
2013-04-22 11:15:00,60.8,45.5,30.01,SW,233,1.0,4.0,57,0.00,,,0.00,0,Wunderground v.1.15,2013-04-22 18:15:00,
2013-04-22 11:20:00,61.2,45.8,30.00,SSW,211,3.0,3.0,57,0.00,,,0.00,0,Wunderground v.1.15,2013-04-22 18:20:00,
2013-04-22 11:30:00,61.1,45.7,30.00,South,180,1.0,1.0,57,0.00,,,0.00,0,Wunderground v.1.15,2013-04-22 18:30:00,
2013-04-22 11:35:00,61.4,46.0,30.00,SSW,206,4.0,4.0,57,0.00,,,0.00,0,Wunderground v.1.15,2013-04-22 18:35:00,
2013-04-22 11:40:00,61.3,45.9,30.00,South,190,2.0,2.0,57,0.00,,,0.00,0,Wunderground v.1.15,2013-04-22 18:40:00,
2013-04-22 11:50:00,62.1,46.2,30.00,SW,221,4.0,4.0,56,0.00,,,0.00,0,Wunderground v.1.15,2013-04-22 18:50:00,
2013-04-22 11:55:00,62.0,46.1,29.99,SSW,204,4.0,4.0,56,0.00,,,0.00,0,Wunderground v.1.15,2013-04-22 18:55:00,
2013-04-22 12:00:00,62.0,46.1,29.99,South,191,2.0,2.0,56,0.00,,,0.00,0,Wunderground v.1.15,2013-04-22 19:00:00,
2013-04-22 12:05:00,62.4,46.5,29.99,SSE,165,1.0,2.0,56,0.00,,,0.00,0,Wunderground v.1.15,2013-04-22 19:05:00,
2013-04-22 12:15:00,62.0,45.6,29.99,South,182,1.0,3.0,55,0.00,,,0.00,0,Wunderground v.1.15,2013-04-22 19:15:00,
2013-04-22 12:20:00,62.0,45.6,29.99,SSE,163,3.0,3.0,55,0.00,,,0.00,0,Wunderground v.1.15,2013-04-22 19:20:00,
2013-04-22 12:30:00,62.4,46.5,29.98,SSW,197,3.0,3.0,56,0.00,,,0.00,0,Wunderground v.1.15,2013-04-22 19:30:00,
2013-04-22 12:40:00,62.6,46.2,29.98,SE,143,2.0,2.0,55,0.00,,,0.00,0,Wunderground v.1.15,2013-04-22 19:40:00,
2013-04-22 12:45:00,62.7,46.3,29.98,SSE,147,2.0,2.0,55,0.00,,,0.00,0,Wunderground v.1.15,2013-04-22 19:45:00,
2013-04-22 12:50:00,62.8,46.4,29.97,SSE,163,4.0,4.0,55,0.00,,,0.00,0,Wunderground v.1.15,2013-04-22 19:50:00,
2013-04-22 13:00:00,62.9,46.5,29.97,SW,218,5.0,5.0,55,0.00,,,0.00,0,Wunderground v.1.15,2013-04-22 20:00:00,
2013-04-22 13:05:00,63.0,46.6,29.97,SSW,198,6.0,6.0,55,0.00,,,0.00,0,Wunderground v.1.15,2013-04-22 20:05:00,
2013-04-22 13:15:00,62.8,46.4,29.97,SSW,203,7.0,7.0,55,0.00,,,0.00,0,Wunderground v.1.15,2013-04-22 20:15:00,
2013-04-22 13:20:00,62.8,46.4,29.97,SSE,158,3.0,3.0,55,0.00,,,0.00,0,Wunderground v.1.15,2013-04-22 20:20:00,
2013-04-22 13:25:00,62.5,45.6,29.97,SSW,212,7.0,7.0,54,0.00,,,0.00,0,Wunderground v.1.15,2013-04-22 20:25:00,
2013-04-22 13:30:00,62.1,45.7,29.97,SSW,213,4.0,4.0,55,0.00,,,0.00,0,Wunderground v.1.15,2013-04-22 20:30:00,
2013-04-22 13:40:00,62.4,46.0,29.96,SSW,213,2.0,2.0,55,0.00,,,0.00,0,Wunderground v.1.15,2013-04-22 20:40:00,
2013-04-22 13:50:00,63.3,46.4,29.96,SSW,199,3.0,3.0,54,0.00,,,0.00,0,Wunderground v.1.15,2013-04-22 20:50:00,
2013-04-22 13:55:00,63.4,46.9,29.96,WSW,243,4.0,4.0,55,0.00,,,0.00,0,Wunderground v.1.15,2013-04-22 20:55:00,
2013-04-22 14:00:00,63.5,46.6,29.95,South,183,3.0,3.0,54,0.00,,,0.00,0,Wunderground v.1.15,2013-04-22 21:00:00,
2013-04-22 14:05:00,63.5,46.6,29.95,SSE,162,3.0,3.0,54,0.00,,,0.00,0,Wunderground v.1.15,2013-04-22 21:05:00,
2013-04-22 14:15:00,62.6,46.2,29.95,South,188,5.0,7.0,55,0.00,,,0.00,0,Wunderground v.1.15,2013-04-22 21:15:00,
2013-04-22 14:20:00,62.4,45.5,29.95,WSW,252,3.0,3.0,54,0.00,,,0.00,0,Wunderground v.1.15,2013-04-22 21:20:00,
2013-04-22 14:25:00,62.3,45.9,29.95,South,179,6.0,6.0,55,0.00,,,0.00,0,Wunderground v.1.15,2013-04-22 21:25:00,
2013-04-22 14:35:00,62.8,45.9,29.95,South,171,2.0,3.0,54,0.00,,,0.00,0,Wunderground v.1.15,2013-04-22 21:35:00,
2013-04-22 14:45:00,63.0,46.1,29.95,SW,224,4.0,4.0,54,0.00,,,0.00,0,Wunderground v.1.15,2013-04-22 21:45:00,
2013-04-22 14:50:00,62.7,45.8,29.95,SSE,159,3.0,3.0,54,0.00,,,0.00,0,Wunderground v.1.15,2013-04-22 21:50:00,
2013-04-22 14:55:00,62.2,45.8,29.95,WSW,244,6.0,6.0,55,0.00,,,0.00,0,Wunderground v.1.15,2013-04-22 21:55:00,
2013-04-22 15:00:00,62.4,46.5,29.95,South,186,2.0,2.0,56,0.00,,,0.00,0,Wunderground v.1.15,2013-04-22 22:00:00,
2013-04-22 15:05:00,62.5,46.1,29.94,SSW,206,3.0,3.0,55,0.00,,,0.00,0,Wunderground v.1.15,2013-04-22 22:05:00,
2013-04-22 15:15:00,62.2,46.3,29.94,SW,236,1.0,3.0,56,0.00,,,0.00,0,Wunderground v.1.15,2013-04-22 22:15:00,
2013-04-22 15:20:00,62.6,46.2,29.94,South,191,3.0,3.0,55,0.00,,,0.00,0,Wunderground v.1.15,2013-04-22 22:20:00,
2013-04-22 15:25:00,62.7,46.3,29.93,South,177,2.0,3.0,55,0.00,,,0.00,0,Wunderground v.1.15,2013-04-22 22:25:00,
2013-04-22 15:35:00,62.5,46.1,29.93,South,180,2.0,3.0,55,0.00,,,0.00,0,Wunderground v.1.15,2013-04-22 22:35:00,
2013-04-22 15:45:00,62.5,45.6,29.93,SW,222,0.0,5.0,54,0.00,,,0.00,0,Wunderground v.1.15,2013-04-22 22:45:00,
2013-04-22 15:50:00,62.1,45.7,29.93,SSW,202,3.0,3.0,55,0.00,,,0.00,0,Wunderground v.1.15,2013-04-22 22:50:00,
2013-04-22 15:55:00,61.7,45.8,29.93,SE,145,2.0,3.0,56,0.00,,,0.00,0,Wunderground v.1.15,2013-04-22 22:55:00,
2013-04-22 16:05:00,62.6,45.7,29.93,SW,228,6.0,6.0,54,0.00,,,0.00,0,Wunderground v.1.15,2013-04-22 23:05:00,
2013-04-22 16:15:00,62.4,45.5,29.93,SSW,207,3.0,3.0,54,0.00,,,0.00,0,Wunderground v.1.15,2013-04-22 23:15:00,
2013-04-22 16:20:00,62.0,45.6,29.92,SE,134,0.0,0.0,55,0.00,,,0.00,0,Wunderground v.1.15,2013-04-22 23:20:00,
2013-04-22 16:25:00,61.6,45.7,29.92,SW,216,3.0,3.0,56,0.00,,,0.00,0,Wunderground v.1.15,2013-04-22 23:25:00,
2013-04-22 16:34:00,61.7,46.3,29.93,South,184,1.0,1.0,57,0.00,,,0.00,0,Wunderground v.1.15,2013-04-22 23:34:00,
2013-04-22 16:40:00,61.8,45.9,29.93,SSW,211,3.0,3.0,56,0.00,,,0.00,0,Wunderground v.1.15,2013-04-22 23:40:00,
2013-04-22 16:45:00,61.3,45.5,29.93,SSW,201,3.0,3.0,56,0.00,,,0.00,0,Wunderground v.1.15,2013-04-22 23:45:00,
2013-04-22 16:50:00,60.6,44.8,29.92,SW,227,2.0,2.0,56,0.00,,,0.00,0,Wunderground v.1.15,2013-04-22 23:50:00,
2013-04-22 17:00:00,60.1,44.8,29.93,South,188,7.0,7.0,57,0.00,,,0.00,0,Wunderground v.1.15,2013-04-23 00:00:00,
2013-04-22 17:05:00,59.3,44.5,29.93,SSW,195,3.0,7.0,58,0.00,,,0.00,0,Wunderground v.1.15,2013-04-23 00:05:00,
2013-04-22 17:15:00,59.5,44.7,29.93,SSW,210,3.0,4.0,58,0.00,,,0.00,0,Wunderground v.1.15,2013-04-23 00:15:00,
2013-04-22 17:25:00,59.5,44.7,29.93,SW,218,1.0,2.0,58,0.00,,,0.00,0,Wunderground v.1.15,2013-04-23 00:25:00,
2013-04-22 17:30:00,59.1,44.8,29.93,SW,222,5.0,5.0,59,0.00,,,0.00,0,Wunderground v.1.15,2013-04-23 00:30:00,
2013-04-22 17:40:00,58.5,44.7,29.92,SSW,203,1.0,1.0,60,0.00,,,0.00,0,Wunderground v.1.15,2013-04-23 00:40:00,
2013-04-22 17:45:00,58.5,44.7,29.92,SW,214,3.0,3.0,60,0.00,,,0.00,0,Wunderground v.1.15,2013-04-23 00:45:00,
2013-04-22 17:55:00,58.1,44.3,29.92,South,179,3.0,5.0,60,0.00,,,0.00,0,Wunderground v.1.15,2013-04-23 00:55:00,
2013-04-22 18:00:00,58.0,44.2,29.92,South,186,5.0,5.0,60,0.00,,,0.00,0,Wunderground v.1.15,2013-04-23 01:00:00,
2013-04-22 18:05:00,58.1,44.3,29.92,SW,219,3.0,5.0,60,0.00,,,0.00,0,Wunderground v.1.15,2013-04-23 01:05:00,
2013-04-22 18:15:00,57.9,44.1,29.92,SSE,165,2.0,2.0,60,0.00,,,0.00,0,Wunderground v.1.15,2013-04-23 01:15:00,
2013-04-22 18:25:00,57.5,44.1,29.92,SSE,154,3.0,6.0,61,0.00,,,0.00,0,Wunderground v.1.15,2013-04-23 01:25:00,
2013-04-22 18:30:00,57.3,43.5,29.92,SE,144,0.0,0.0,60,0.00,,,0.00,0,Wunderground v.1.15,2013-04-23 01:30:00,
2013-04-22 18:40:00,57.1,43.8,29.92,SW,221,0.0,0.0,61,0.00,,,0.00,0,Wunderground v.1.15,2013-04-23 01:40:00,
2013-04-22 18:50:00,57.3,44.0,29.92,SSW,210,0.0,0.0,61,0.00,,,0.00,0,Wunderground v.1.15,2013-04-23 01:50:00,
2013-04-22 18:55:00,57.3,44.0,29.92,SE,144,1.0,1.0,61,0.00,,,0.00,0,Wunderground v.1.15,2013-04-23 01:55:00,
2013-04-22 19:00:00,57.1,43.8,29.92,SSE,147,0.0,0.0,61,0.00,,,0.00,0,Wunderground v.1.15,2013-04-23 02:00:00,
2013-04-22 19:05:00,57.2,43.9,29.92,South,179,1.0,1.0,61,0.00,,,0.00,0,Wunderground v.1.15,2013-04-23 02:05:00,
2013-04-22 19:15:00,56.8,43.5,29.92,SW,226,0.0,4.0,61,0.00,,,0.00,0,Wunderground v.1.15,2013-04-23 02:15:00,
2013-04-22 19:20:00,56.8,43.5,29.92,South,174,0.0,0.0,61,0.00,,,0.00,0,Wunderground v.1.15,2013-04-23 02:20:00,
2013-04-22 19:30:00,56.9,43.6,29.92,SSW,198,0.0,0.0,61,0.00,,,0.00,0,Wunderground v.1.15,2013-04-23 02:30:00,
2013-04-22 19:40:00,57.2,43.9,29.92,SSW,197,1.0,1.0,61,0.00,,,0.00,0,Wunderground v.1.15,2013-04-23 02:40:00,
2013-04-22 19:45:00,57.2,43.9,29.92,SSW,197,1.0,1.0,61,0.00,,,0.00,0,Wunderground v.1.15,2013-04-23 02:45:00,
2013-04-22 19:50:00,57.1,43.8,29.92,SSW,197,1.0,1.0,61,0.00,,,0.00,0,Wunderground v.1.15,2013-04-23 02:50:00,
2013-04-22 20:00:00,56.8,43.5,29.93,SSW,197,0.0,0.0,61,0.00,,,0.00,0,Wunderground v.1.15,2013-04-23 03:00:00,
2013-04-22 20:05:00,56.6,43.3,29.93,SSW,196,0.0,0.0,61,0.00,,,0.00,0,Wunderground v.1.15,2013-04-23 03:05:00,
2013-04-22 20:15:00,56.6,43.3,29.93,SSW,196,0.0,0.0,61,0.00,,,0.00,0,Wunderground v.1.15,2013-04-23 03:15:00,
2013-04-22 20:20:00,56.4,43.1,29.93,South,173,0.0,0.0,61,0.00,,,0.00,0,Wunderground v.1.15,2013-04-23 03:20:00,
2013-04-22 20:30:00,56.6,43.3,29.93,South,173,1.0,1.0,61,0.00,,,0.00,0,Wunderground v.1.15,2013-04-23 03:30:00,
2013-04-22 20:40:00,56.7,43.4,29.94,SSW,197,1.0,1.0,61,0.00,,,0.00,0,Wunderground v.1.15,2013-04-23 03:40:00,
2013-04-22 20:45:00,56.8,43.5,29.95,SSW,197,0.0,1.0,61,0.00,,,0.00,0,Wunderground v.1.15,2013-04-23 03:45:00,
2013-04-22 20:50:00,56.8,43.5,29.95,SSW,197,0.0,0.0,61,0.00,,,0.00,0,Wunderground v.1.15,2013-04-23 03:50:00,
2013-04-22 21:00:00,56.6,43.3,29.95,SSE,152,0.0,0.0,61,0.00,,,0.00,0,Wunderground v.1.15,2013-04-23 04:00:00,
2013-04-22 21:05:00,56.6,43.3,29.95,SSE,152,0.0,0.0,61,0.00,,,0.00,0,Wunderground v.1.15,2013-04-23 04:05:00,
2013-04-22 21:15:00,56.6,43.3,29.95,SE,142,0.0,2.0,61,0.00,,,0.00,0,Wunderground v.1.15,2013-04-23 04:15:00,
2013-04-22 21:20:00,56.6,43.3,29.96,SSW,206,0.0,0.0,61,0.00,,,0.00,0,Wunderground v.1.15,2013-04-23 04:20:00,
2013-04-22 21:25:00,56.5,43.2,29.96,SSW,192,0.0,0.0,61,0.00,,,0.00,0,Wunderground v.1.15,2013-04-23 04:25:00,
2013-04-22 21:30:00,56.4,43.1,29.95,South,188,0.0,0.0,61,0.00,,,0.00,0,Wunderground v.1.15,2013-04-23 04:30:00,
2013-04-22 21:35:00,56.3,43.4,29.96,South,187,0.0,0.0,62,0.00,,,0.00,0,Wunderground v.1.15,2013-04-23 04:35:00,
2013-04-22 21:40:00,56.4,43.5,29.96,South,186,0.0,0.0,62,0.00,,,0.00,0,Wunderground v.1.15,2013-04-23 04:40:00,
2013-04-22 21:45:00,56.5,43.6,29.96,South,186,0.0,0.0,62,0.00,,,0.00,0,Wunderground v.1.15,2013-04-23 04:45:00,
2013-04-22 21:50:00,56.7,43.8,29.96,South,187,0.0,0.0,62,0.00,,,0.00,0,Wunderground v.1.15,2013-04-23 04:50:00,
2013-04-22 22:00:00,56.5,43.2,29.96,South,188,1.0,1.0,61,0.00,,,0.00,0,Wunderground v.1.15,2013-04-23 05:00:00,
2013-04-22 22:05:00,56.4,43.1,29.96,South,188,2.0,2.0,61,0.00,,,0.00,0,Wunderground v.1.15,2013-04-23 05:05:00,
2013-04-22 22:15:00,56.1,42.8,29.96,SE,142,0.0,4.0,61,0.00,,,0.00,0,Wunderground v.1.15,2013-04-23 05:15:00,
2013-04-22 22:20:00,56.2,42.5,29.96,SE,142,0.0,0.0,60,0.00,,,0.00,0,Wunderground v.1.15,2013-04-23 05:20:00,
2013-04-22 22:30:00,56.3,42.6,29.96,SE,143,0.0,0.0,60,0.00,,,0.00,0,Wunderground v.1.15,2013-04-23 05:30:00,
2013-04-22 22:40:00,56.2,42.5,29.95,SE,143,0.0,0.0,60,0.00,,,0.00,0,Wunderground v.1.15,2013-04-23 05:40:00,
2013-04-22 22:45:00,56.1,42.4,29.95,SE,143,0.0,0.0,60,0.00,,,0.00,0,Wunderground v.1.15,2013-04-23 05:45:00,
2013-04-22 22:50:00,56.1,42.4,29.95,SE,143,1.0,1.0,60,0.00,,,0.00,0,Wunderground v.1.15,2013-04-23 05:50:00,
2013-04-22 23:00:00,56.3,43.0,29.95,ENE,64,0.0,0.0,61,0.00,,,0.00,0,Wunderground v.1.15,2013-04-23 06:00:00,
2013-04-22 23:05:00,56.5,43.2,29.95,ENE,64,0.0,0.0,61,0.00,,,0.00,0,Wunderground v.1.15,2013-04-23 06:05:00,
2013-04-22 23:15:00,56.4,43.1,29.95,ESE,111,0.0,2.0,61,0.00,,,0.00,0,Wunderground v.1.15,2013-04-23 06:15:00,
2013-04-22 23:25:00,56.1,42.8,29.95,SSE,147,0.0,2.0,61,0.00,,,0.00,0,Wunderground v.1.15,2013-04-23 06:25:00,
2013-04-22 23:30:00,56.2,42.9,29.95,SSE,147,0.0,0.0,61,0.00,,,0.00,0,Wunderground v.1.15,2013-04-23 06:30:00,
2013-04-22 23:40:00,56.2,42.5,29.95,SSE,147,0.0,0.0,60,0.00,,,0.00,0,Wunderground v.1.15,2013-04-23 06:40:00,
2013-04-22 23:45:00,56.4,43.1,29.95,NE,53,0.0,0.0,61,0.00,,,0.00,0,Wunderground v.1.15,2013-04-23 06:45:00,
2013-04-22 23:55:00,56.3,43.0,29.95,ENE,61,0.0,3.0,61,0.00,,,0.00,0,Wunderground v.1.15,2013-04-23 06:55:00,